QPF
0.00 0.00 0.00 0.00 0.00 0.00 0.00 0.00 0.00 0.00 0.00 0.00 0.00 0.00 0.00 0.00 0.00 0.00 0.00 0.00 0.00 0.00 0.00 0.00 0.00 0.00 0.00 0.00 0.00 0.00 0.00 0.00 0.00 0.00 0.00 0.00 0.00 0.00 0.00 0.00 0.00 0.00 0.00
0.00 0.00 0.00 0.00 0.00 0.00 0.00 0.00 0.00 0.00 0.00 0.00 0.00 0.00 0.00 0.00 0.00 0.00 0.00 0.00 0.00 0.00 0.00 0.00 0.00 0.00 0.00 0.00 0.00 0.00 0.00 0.00 0.00 0.00 0.00 0.00 0.00 0.00 0.00 0.00 0.00 0.00 0.00
0.00 0.00 0.00 0.00 0.00 0.00 0.00 0.00 0.00 0.00 0.00 0.00 0.00 0.00 0.00 0.00 0.00 0.00 0.00 0.00 0.00 0.00 0.00 0.00 0.00 0.00 0.00 0.00 0.00 0.00 0.00 0.00 0.00 0.00 0.00 0.00 0.00 0.00 0.00 0.00 0.00 0.00 0.00
0.00 0.00 0.00 0.00 0.00 0.00 0.00 0.00 0.00 0.00 0.00 0.00 0.00 0.00 0.00 0.00 0.00 0.00 0.00 0.00 0.00 0.00 0.00 0.00 0.00 0.00 0.00 0.00 0.00 0.00 0.00 0.00 0.00 0.00 0.00 0.00 0.00 0.00 0.00 0.00 0.00 0.00 0.00
0.00 0.00 0.00 0.00 0.00 0.00 0.00 0.00 0.00 0.00 0.00 0.00 0.00 0.00 0.00 0.00 0.00 0.00 0.00 0.00 0.00 0.00 0.00 0.00 0.00 0.00 0.00 0.00 0.00 0.00 0.00 0.00 0.00 0.00 0.00 0.00 0.00 0.00 0.00 0.00 0.00 0.00 0.00
0.00 0.00 0.00 0.00 0.00 0.00 0.00 0.00 0.00 0.00 0.00 0.00 0.00 0.00 0.00 0.00 0.00 0.00 0.00 0.00 0.00 0.00 0.00 0.00 0.00 0.00 0.00 0.00 0.00 0.00 0.00 0.01 0.01 0.01 0.01 0.00 0.00 0.00 0.00 0.00 0.00 0.00 0.00
0.00 0.00 0.00 0.00 0.00 0.00 0.00 0.00 0.00 0.00 0.00 0.00 0.00 0.00 0.00 0.00 0.00 0.00 0.00 0.00 0.00 0.00 0.00 0.00 0.00 0.00 0.00 0.00 0.00 0.00 0.00 0.00 0.00 0.01 0.01 0.00 0.00 0.00 0.01 0.01 0.00 0.00 0.00
0.00 0.00 0.00 0.00 0.00 0.00 0.00 0.00 0.00 0.00 0.00 0.00 0.00 0.00 0.00 0.00 0.00 0.00 0.00 0.01 0.00 0.00 0.00 0.00 0.00 0.00 0.00 0.00 0.00 0.00 0.00 0.00 0.00 0.00 0.00 0.00 0.00 0.00 0.01 0.01 0.01 0.01 0.00
0.00 0.00 0.00 0.00 0.00 0.00 0.00 0.00 0.00 0.00 0.00 0.00 0.00 0.00 0.00 0.00 0.00 0.00 0.01 0.01 0.01 0.00 0.00 0.00 0.00 0.00 0.00 0.01 0.01 0.01 0.01 0.00 0.00 0.00 0.01 0.01 0.01 0.01 0.01 0.03 0.03 0.03 0.02
0.00 0.00 0.00 0.00 0.00 0.00 0.00 0.00 0.00 0.00 0.00 0.00 0.00 0.00 0.00 0.00 0.00 0.00 0.01 0.02 0.01 0.00 0.00 0.00 0.00 0.00 0.01 0.01 0.02 0.03 0.02 0.01 0.00 0.00 0.00 0.00 0.00 0.00 0.01 0.02 0.04 0.05 0.03
0.00 0.00 0.00 0.00 0.00 0.00 0.00 0.00 0.00 0.00 0.00 0.00 0.00 0.00 0.00 0.00 0.00 0.00 0.01 0.02 0.02 0.02 0.02 0.01 0.00 0.00 0.01 0.01 0.02 0.03 0.02 0.02 0.02 0.02 0.02 0.01 0.00 0.00 0.00 0.01 0.01 0.02 0.03
0.00 0.00 0.00 0.00 0.00 0.00 0.00 0.00 0.00 0.00 0.00 0.00 0.00 0.00 0.00 0.00 0.00 0.00 0.01 0.02 0.02 0.04 0.02 0.01 0.00 0.01 0.02 0.03 0.04 0.04 0.03 0.04 0.04 0.04 0.02 0.01 0.01 0.00 0.00 0.00 0.01 0.01 0.01
0.00 0.00 0.00 0.00 0.00 0.00 0.00 0.00 0.00 0.00 0.00 0.00 0.00 0.00 0.00 0.00 0.00 0.00 0.00 0.01 0.01 0.02 0.01 0.01 0.02 0.02 0.03 0.02 0.02 0.02 0.01 0.01 0.01 0.02 0.02 0.01 0.01 0.01 0.01 0.01 0.01 0.01 0.02
0.00 0.00 0.00 0.00 0.00 0.00 0.00 0.00 0.00 0.00 0.00 0.00 0.00 0.00 0.00 0.00 0.00 0.00 0.02 0.02 0.02 0.02 0.02 0.02 0.02 0.02 0.01 0.01 0.01 0.01 0.00 0.00 0.01 0.01 0.01 0.01 0.01 0.02 0.02 0.02 0.02 0.03 0.04
0.00 0.00 0.00 0.00 0.00 0.00 0.00 0.00 0.00 0.00 0.00 0.02 0.03 0.03 0.03 0.02 0.01 0.03 0.05 0.06 0.05 0.06 0.06 0.05 0.03 0.02 0.01 0.01 0.00 0.00 0.00 0.00 0.01 0.02 0.02 0.03 0.02 0.03 0.03 0.02 0.03 0.04 0.06
0.00 0.00 0.00 0.00 0.00 0.00 0.00 0.00 0.00 0.00 0.00 0.01 0.02 0.03 0.03 0.03 0.04 0.04 0.04 0.04 0.04 0.04 0.03 0.02 0.01 0.00 0.00 0.00 0.01 0.01 0.01 0.01 0.01 0.03 0.05 0.05 0.05 0.05 0.05 0.04 0.05 0.06 0.06
0.00 0.00 0.00 0.00 0.00 0.00 0.00 0.00 0.00 0.00 0.00 0.00 0.00 0.01 0.02 0.03 0.03 0.04 0.04 0.03 0.02 0.01 0.01 0.00 0.00 0.00 0.00 0.01 0.01 0.01 0.01 0.01 0.01 0.03 0.04 0.05 0.06 0.07 0.07 0.07 0.07 0.08 0.07
0.00 0.00 0.00 0.00 0.00 0.00 0.00 0.00 0.00 0.00 0.00 0.00 0.00 0.00 0.01 0.01 0.02 0.02 0.02 0.01 0.00 0.00 0.00 0.00 0.01 0.01 0.01 0.01 0.02 0.02 0.02 0.02 0.02 0.03 0.03 0.04 0.06 0.07 0.07 0.07 0.07 0.07 0.07
0.00 0.00 0.00 0.00 0.00 0.00 0.00 0.00 0.00 0.00 0.00 0.00 0.00 0.00 0.00 0.00 0.00 0.00 0.01 0.00 0.00 0.00 0.00 0.00 0.01 0.01 0.02 0.02 0.03 0.03 0.03 0.03 0.03 0.04 0.04 0.04 0.05 0.07 0.07 0.06 0.06 0.06 0.07
0.00 0.00 0.00 0.00 0.00 0.00 0.00 0.00 0.00 0.00 0.00 0.00 0.00 0.00 0.00 0.00 0.00 0.00 0.00 0.00 0.00 0.00 0.00 0.01 0.01 0.01 0.02 0.02 0.03 0.03 0.03 0.03 0.04 0.04 0.04 0.04 0.05 0.06 0.06 0.05 0.05 0.06 0.06
0.00 0.00 0.00 0.00 0.00 0.00 0.00 0.00 0.00 0.00 0.00 0.00 0.00 0.00 0.02 0.01 0.00 0.00 0.00 0.00 0.00 0.01 0.01 0.01 0.01 0.01 0.01 0.02 0.02 0.02 0.03 0.03 0.03 0.04 0.04 0.04 0.04 0.05 0.05 0.06 0.06 0.06 0.07
0.00 0.00 0.00 0.00 0.00 0.00 0.00 0.00 0.00 0.00 0.00 0.00 0.00 0.00 0.00 0.00 0.00 0.00 0.00 0.00 0.00 0.00 0.01 0.01 0.01 0.01 0.02 0.02 0.03 0.03 0.02 0.02 0.02 0.02 0.02 0.03 0.03 0.04 0.04 0.05 0.05 0.06 0.06
0.00 0.00 0.00 0.00 0.00 0.00 0.00 0.00 0.00 0.00 0.00 0.00 0.00 0.00 0.00 0.00 0.00 0.00 0.00 0.00 0.00 0.00 0.00 0.01 0.01 0.01 0.01 0.02 0.02 0.03 0.03 0.03 0.03 0.03 0.03 0.02 0.02 0.03 0.03 0.04 0.04 0.04 0.04
0.00 0.00 0.00 0.00 0.00 0.00 0.00 0.00 0.00 0.00 0.00 0.00 0.00 0.00 0.00 0.00 0.00 0.00 0.00 0.00 0.00 0.00 0.00 0.00 0.00 0.01 0.01 0.01 0.01 0.02 0.03 0.03 0.02 0.02 0.02 0.02 0.02 0.02 0.02 0.03 0.03 0.04 0.04
0.00 0.00 0.00 0.00 0.00 0.00 0.00 0.00 0.00 0.00 0.00 0.00 0.00 0.00 0.00 0.00 0.00 0.00 0.00 0.00 0.00 0.00 0.00 0.00 0.00 0.00 0.00 0.00 0.01 0.01 0.02 0.02 0.01 0.01 0.01 0.01 0.02 0.02 0.02 0.02 0.02 0.03 0.03
0.00 0.00 0.00 0.00 0.00 0.00 0.00 0.00 0.00 0.00 0.00 0.00 0.00 0.00 0.00 0.00 0.00 0.00 0.00 0.00 0.00 0.00 0.00 0.00 0.00 0.00 0.00 0.00 0.01 0.01 0.02 0.02 0.01 0.01 0.01 0.01 0.01 0.01 0.01 0.02 0.02 0.02 0.02
MSLP
1029.54 1029.74 1029.95 1030.15 1030.34 1030.51 1030.67 1030.79 1030.88 1030.95 1030.97 1030.94 1030.86 1030.71 1030.51 1030.25 1029.95 1029.62 1029.28 1028.94 1028.60 1028.27 1027.93 1027.58 1027.18 1026.73 1026.21 1025.61 1024.93 1024.20 1023.44 1022.67 1021.92 1021.22 1020.59 1020.03 1019.54 1019.13 1018.77 1018.46 1018.19 1017.96 1017.77
1029.48 1029.72 1029.95 1030.18 1030.38 1030.56 1030.71 1030.84 1030.93 1030.99 1031.00 1030.95 1030.84 1030.66 1030.41 1030.10 1029.75 1029.36 1028.97 1028.57 1028.19 1027.83 1027.47 1027.11 1026.71 1026.28 1025.78 1025.21 1024.58 1023.90 1023.18 1022.44 1021.71 1021.02 1020.36 1019.77 1019.22 1018.73 1018.29 1017.90 1017.55 1017.23 1016.97
1029.30 1029.59 1029.86 1030.11 1030.34 1030.53 1030.70 1030.83 1030.93 1030.98 1030.97 1030.91 1030.77 1030.55 1030.26 1029.91 1029.51 1029.08 1028.65 1028.22 1027.81 1027.42 1027.05 1026.67 1026.28 1025.85 1025.37 1024.83 1024.23 1023.58 1022.89 1022.19 1021.47 1020.78 1020.11 1019.47 1018.87 1018.31 1017.79 1017.31 1016.87 1016.47 1016.14
1029.00 1029.34 1029.66 1029.95 1030.20 1030.43 1030.62 1030.77 1030.88 1030.93 1030.93 1030.85 1030.69 1030.45 1030.13 1029.74 1029.31 1028.85 1028.39 1027.94 1027.51 1027.10 1026.71 1026.32 1025.92 1025.48 1025.00 1024.47 1023.88 1023.25 1022.58 1021.88 1021.18 1020.48 1019.80 1019.13 1018.48 1017.86 1017.27 1016.70 1016.18 1015.71 1015.30
1028.61 1029.00 1029.36 1029.70 1030.00 1030.27 1030.49 1030.68 1030.82 1030.90 1030.90 1030.82 1030.65 1030.39 1030.05 1029.64 1029.19 1028.71 1028.23 1027.76 1027.31 1026.88 1026.47 1026.05 1025.62 1025.16 1024.66 1024.11 1023.51 1022.86 1022.19 1021.50 1020.80 1020.10 1019.41 1018.73 1018.05 1017.39 1016.75 1016.12 1015.54 1014.99 1014.51
1028.18 1028.62 1029.03 1029.41 1029.77 1030.09 1030.37 1030.61 1030.79 1030.90 1030.93 1030.86 1030.68 1030.41 1030.05 1029.62 1029.14 1028.63 1028.12 1027.63 1027.15 1026.69 1026.24 1025.79 1025.31 1024.80 1024.26 1023.66 1023.03 1022.36 1021.68 1020.99 1020.29 1019.61 1018.93 1018.26 1017.59 1016.92 1016.25 1015.59 1014.95 1014.35 1013.81
1027.77 1028.25 1028.71 1029.15 1029.56 1029.94 1030.29 1030.58 1030.82 1030.96 1031.01 1030.95 1030.77 1030.48 1030.09 1029.62 1029.10 1028.56 1028.01 1027.47 1026.95 1026.44 1025.93 1025.42 1024.88 1024.31 1023.70 1023.05 1022.37 1021.68 1020.99 1020.30 1019.63 1018.98 1018.34 1017.71 1017.08 1016.43 1015.78 1015.11 1014.45 1013.80 1013.19
1027.45 1027.97 1028.47 1028.96 1029.43 1029.87 1030.28 1030.63 1030.90 1031.08 1031.14 1031.07 1030.87 1030.54 1030.09 1029.57 1028.99 1028.38 1027.77 1027.16 1026.58 1026.00 1025.42 1024.83 1024.22 1023.57 1022.89 1022.19 1021.47 1020.76 1020.06 1019.40 1018.78 1018.19 1017.62 1017.07 1016.50 1015.92 1015.30 1014.65 1013.97 1013.29 1012.63
1027.23 1027.79 1028.34 1028.87 1029.39 1029.89 1030.34 1030.73 1031.02 1031.21 1031.25 1031.15 1030.89 1030.49 1029.97 1029.36 1028.70 1028.01 1027.31 1026.63 1025.96 1025.31 1024.65 1023.99 1023.29 1022.58 1021.83 1021.08 1020.33 1019.61 1018.93 1018.31 1017.75 1017.24 1016.76 1016.30 1015.83 1015.32 1014.75 1014.13 1013.46 1012.75 1012.03
1027.14 1027.73 1028.32 1028.88 1029.44 1029.96 1030.43 1030.82 1031.11 1031.27 1031.26 1031.09 1030.75 1030.25 1029.63 1028.92 1028.16 1027.37 1026.59 1025.83 1025.09 1024.36 1023.64 1022.90 1022.15 1021.37 1020.58 1019.79 1019.02 1018.30 1017.65 1017.07 1016.58 1016.15 1015.77 1015.40 1015.01 1014.57 1014.07 1013.47 1012.80 1012.07 1011.31
1027.12 1027.75 1028.36 1028.95 1029.51 1030.03 1030.49 1030.85 1031.09 1031.18 1031.09 1030.82 1030.37 1029.76 1029.03 1028.22 1027.36 1026.49 1025.64 1024.81 1024.02 1023.25 1022.48 1021.70 1020.91 1020.09 1019.27 1018.46 1017.68 1016.96 1016.32 1015.78 1015.34 1014.97 1014.65 1014.35 1014.03 1013.64 1013.16 1012.59 1011.92 1011.17 1010.37
1027.15 1027.79 1028.41 1029.00 1029.55 1030.04 1030.45 1030.75 1030.91 1030.89 1030.69 1030.30 1029.73 1029.01 1028.18 1027.28 1026.35 1025.43 1024.54 1023.70 1022.89 1022.11 1021.33 1020.55 1019.75 1018.92 1018.08 1017.25 1016.46 1015.73 1015.09 1014.55 1014.12 1013.76 1013.47 1013.18 1012.87 1012.49 1012.02 1011.43 1010.75 1009.98 1009.16
1027.15 1027.80 1028.41 1028.98 1029.49 1029.93 1030.27 1030.48 1030.53 1030.39 1030.07 1029.56 1028.88 1028.06 1027.15 1026.20 1025.25 1024.32 1023.45 1022.63 1021.86 1021.12 1020.39 1019.63 1018.85 1018.03 1017.18 1016.34 1015.52 1014.76 1014.08 1013.50 1013.01 1012.61 1012.27 1011.93 1011.57 1011.15 1010.63 1010.00 1009.28 1008.49 1007.67
1027.11 1027.75 1028.33 1028.86 1029.32 1029.69 1029.94 1030.04 1029.98 1029.73 1029.29 1028.68 1027.91 1027.03 1026.09 1025.13 1024.20 1023.32 1022.52 1021.78 1021.10 1020.44 1019.78 1019.09 1018.34 1017.54 1016.70 1015.82 1014.96 1014.13 1013.36 1012.69 1012.10 1011.58 1011.11 1010.67 1010.19 1009.66 1009.05 1008.36 1007.59 1006.77 1005.95
1027.01 1027.62 1028.16 1028.64 1029.04 1029.33 1029.49 1029.50 1029.33 1028.98 1028.46 1027.77 1026.95 1026.05 1025.12 1024.20 1023.35 1022.57 1021.87 1021.26 1020.70 1020.15 1019.59 1018.97 1018.27 1017.49 1016.63 1015.72 1014.78 1013.85 1012.97 1012.15 1011.39 1010.71 1010.07 1009.45 1008.81 1008.13 1007.40 1006.61 1005.77 1004.92 1004.11
1026.87 1027.43 1027.92 1028.35 1028.68 1028.90 1028.99 1028.92 1028.68 1028.26 1027.68 1026.96 1026.13 1025.26 1024.38 1023.55 1022.79 1022.14 1021.58 1021.10 1020.67 1020.24 1019.78 1019.23 1018.57 1017.80 1016.92 1015.95 1014.92 1013.87 1012.84 1011.84 1010.90 1010.01 1009.17 1008.34 1007.51 1006.67 1005.79 1004.89 1003.99 1003.11 1002.31
1026.72 1027.21 1027.65 1028.02 1028.31 1028.48 1028.51 1028.39 1028.11 1027.66 1027.06 1026.35 1025.55 1024.72 1023.93 1023.19 1022.55 1022.03 1021.59 1021.24 1020.92 1020.59 1020.20 1019.70 1019.07 1018.29 1017.37 1016.33 1015.21 1014.03 1012.85 1011.69 1010.55 1009.47 1008.42 1007.39 1006.38 1005.37 1004.35 1003.35 1002.39 1001.49 1000.70
1026.57 1026.99 1027.37 1027.70 1027.94 1028.09 1028.10 1027.96 1027.67 1027.22 1026.64 1025.96 1025.21 1024.46 1023.75 1023.11 1022.57 1022.15 1021.82 1021.55 1021.31 1021.03 1020.67 1020.19 1019.55 1018.75 1017.79 1016.68 1015.47 1014.19 1012.88 1011.58 1010.29 1009.03 1007.81 1006.62 1005.45 1004.31 1003.18 1002.10 1001.09 1000.19 999.43
1026.42 1026.77 1027.10 1027.39 1027.61 1027.74 1027.75 1027.62 1027.35 1026.93 1026.39 1025.76 1025.08 1024.40 1023.77 1023.21 1022.74 1022.38 1022.10 1021.87 1021.65 1021.38 1021.02 1020.52 1019.85 1019.01 1018.01 1016.85 1015.57 1014.22 1012.83 1011.43 1010.04 1008.67 1007.34 1006.04 1004.77 1003.54 1002.35 1001.23 1000.20 999.30 998.58
1026.24 1026.52 1026.80 1027.06 1027.27 1027.41 1027.43 1027.33 1027.10 1026.73 1026.24 1025.67 1025.06 1024.45 1023.87 1023.36 1022.93 1022.59 1022.32 1022.08 1021.83 1021.52 1021.11 1020.56 1019.85 1018.97 1017.93 1016.74 1015.43 1014.05 1012.63 1011.20 1009.77 1008.37 1006.99 1005.65 1004.35 1003.08 1001.88 1000.76 999.74 998.87 998.20
1025.99 1026.21 1026.45 1026.69 1026.89 1027.03 1027.08 1027.02 1026.83 1026.51 1026.09 1025.58 1025.03 1024.47 1023.93 1023.45 1023.03 1022.67 1022.37 1022.08 1021.76 1021.39 1020.91 1020.30 1019.53 1018.62 1017.55 1016.35 1015.06 1013.70 1012.30 1010.89 1009.50 1008.12 1006.77 1005.46 1004.18 1002.95 1001.78 1000.70 999.73 998.91 998.29
1025.63 1025.80 1026.00 1026.22 1026.42 1026.57 1026.63 1026.60 1026.45 1026.19 1025.83 1025.38 1024.88 1024.36 1023.86 1023.39 1022.96 1022.58 1022.22 1021.86 1021.47 1021.01 1020.46 1019.78 1018.97 1018.03 1016.96 1015.78 1014.53 1013.23 1011.90 1010.57 1009.25 1007.96 1006.69 1005.46 1004.26 1003.11 1002.02 1001.01 1000.12 999.38 998.83
1025.15 1025.27 1025.44 1025.63 1025.82 1025.96 1026.04 1026.03 1025.92 1025.70 1025.39 1025.00 1024.55 1024.08 1023.61 1023.15 1022.72 1022.30 1021.90 1021.47 1021.01 1020.48 1019.86 1019.14 1018.30 1017.34 1016.29 1015.16 1013.97 1012.75 1011.52 1010.30 1009.09 1007.92 1006.77 1005.66 1004.58 1003.54 1002.56 1001.66 1000.87 1000.22 999.74
1024.55 1024.64 1024.77 1024.93 1025.10 1025.23 1025.31 1025.31 1025.22 1025.04 1024.78 1024.44 1024.05 1023.63 1023.20 1022.76 1022.33 1021.91 1021.47 1021.01 1020.50 1019.92 1019.26 1018.50 1017.64 1016.70 1015.68 1014.60 1013.48 1012.36 1011.24 1010.13 1009.06 1008.02 1007.01 1006.03 1005.08 1004.18 1003.33 1002.56 1001.88 1001.33 1000.93
1023.89 1023.95 1024.04 1024.17 1024.30 1024.41 1024.47 1024.47 1024.40 1024.24 1024.02 1023.74 1023.41 1023.05 1022.66 1022.27 1021.87 1021.45 1021.02 1020.54 1020.01 1019.40 1018.72 1017.95 1017.10 1016.18 1015.20 1014.18 1013.14 1012.10 1011.08 1010.10 1009.15 1008.24 1007.36 1006.53 1005.73 1004.97 1004.26 1003.62 1003.06 1002.61 1002.29
1023.23 1023.26 1023.32 1023.40 1023.49 1023.56 1023.60 1023.59 1023.51 1023.39 1023.20 1022.96 1022.69 1022.39 1022.07 1021.73 1021.37 1020.98 1020.56 1020.10 1019.56 1018.96 1018.28 1017.52 1016.68 1015.79 1014.85 1013.88 1012.91 1011.96 1011.03 1010.15 1009.31 1008.52 1007.78 1007.08 1006.42 1005.81 1005.24 1004.74 1004.30 1003.96 1003.73
Thickness
5415 5411 5406 5401 5396 5391 5386 5380 5376 5371 5367 5363 5360 5357 5354 5351 5349 5348 5347 5346 5347 5349 5349 5351 5354 5355 5358 5362 5365 5370 5375 5379 5393 5418 5428 5438 5445 5451 5457 5462 5467 5473 5479
5398 5393 5387 5381 5376 5370 5364 5358 5353 5348 5343 5338 5335 5331 5328 5325 5323 5321 5321 5321 5321 5323 5324 5325 5328 5329 5333 5335 5339 5345 5352 5357 5364 5382 5399 5410 5421 5428 5435 5442 5448 5454 5460
5380 5374 5368 5361 5355 5348 5342 5336 5330 5325 5320 5314 5309 5305 5301 5298 5295 5294 5293 5294 5294 5295 5297 5298 5301 5302 5307 5309 5312 5319 5326 5334 5341 5352 5371 5382 5395 5404 5411 5421 5428 5434 5441
5362 5356 5349 5342 5335 5328 5321 5314 5307 5302 5296 5291 5285 5280 5275 5271 5268 5267 5266 5267 5268 5269 5270 5271 5273 5274 5278 5282 5287 5294 5299 5307 5315 5325 5341 5355 5367 5378 5384 5396 5405 5413 5421
5345 5338 5331 5323 5315 5307 5299 5292 5285 5279 5273 5267 5262 5258 5252 5249 5246 5243 5242 5243 5244 5246 5247 5246 5247 5248 5250 5253 5259 5267 5272 5279 5287 5296 5311 5327 5341 5350 5359 5368 5377 5390 5401
5329 5321 5312 5303 5294 5286 5278 5271 5264 5258 5252 5247 5242 5238 5234 5230 5226 5223 5220 5222 5222 5223 5225 5225 5224 5225 5227 5230 5234 5239 5244 5250 5258 5265 5280 5297 5314 5320 5328 5336 5347 5361 5380
5312 5301 5291 5281 5273 5265 5258 5251 5244 5239 5234 5230 5225 5221 5218 5213 5210 5208 5203 5202 5203 5202 5201 5203 5205 5205 5205 5208 5212 5217 5221 5223 5228 5235 5248 5264 5276 5287 5293 5307 5316 5328 5351
5293 5282 5271 5262 5253 5246 5239 5232 5227 5222 5217 5213 5209 5205 5202 5198 5194 5191 5187 5187 5186 5185 5184 5183 5185 5187 5187 5189 5195 5200 5203 5206 5208 5213 5223 5236 5241 5249 5255 5265 5277 5294 5317
5276 5265 5254 5245 5237 5230 5223 5217 5211 5206 5202 5197 5194 5190 5186 5183 5178 5175 5173 5174 5173 5172 5171 5170 5170 5173 5175 5176 5182 5186 5191 5193 5193 5198 5205 5212 5220 5226 5230 5236 5248 5260 5286
5262 5250 5239 5230 5222 5216 5209 5202 5196 5191 5187 5183 5180 5175 5170 5167 5163 5161 5159 5160 5161 5162 5163 5163 5163 5165 5169 5170 5173 5177 5182 5185 5187 5191 5194 5198 5202 5207 5209 5212 5220 5232 5252
5244 5233 5224 5216 5209 5202 5195 5188 5181 5176 5172 5167 5165 5162 5157 5154 5151 5149 5148 5148 5151 5155 5158 5160 5160 5161 5164 5167 5169 5173 5177 5181 5184 5186 5189 5191 5192 5194 5195 5197 5201 5208 5223
5228 5218 5209 5201 5194 5188 5180 5173 5165 5159 5155 5152 5149 5149 5146 5143 5140 5141 5142 5143 5144 5147 5151 5154 5157 5159 5162 5165 5168 5171 5173 5175 5176 5177 5179 5181 5181 5182 5183 5184 5187 5193 5203
5211 5203 5194 5187 5180 5173 5166 5159 5152 5145 5140 5138 5136 5135 5136 5136 5133 5134 5136 5138 5140 5142 5146 5149 5153 5155 5158 5161 5162 5162 5163 5162 5162 5163 5166 5168 5167 5168 5168 5170 5174 5177 5187
5197 5188 5181 5174 5168 5161 5153 5147 5140 5133 5128 5125 5122 5123 5126 5128 5128 5129 5132 5134 5137 5139 5141 5144 5144 5144 5145 5147 5147 5147 5146 5146 5145 5147 5149 5151 5149 5148 5149 5150 5154 5160 5169
5183 5176 5169 5162 5155 5148 5142 5135 5130 5125 5118 5116 5117 5118 5120 5122 5121 5123 5126 5129 5131 5133 5133 5129 5126 5126 5127 5129 5130 5129 5129 5130 5131 5132 5132 5133 5132 5132 5133 5134 5137 5143 5153
5171 5163 5156 5149 5142 5136 5130 5125 5121 5119 5117 5115 5114 5113 5112 5111 5113 5116 5118 5119 5120 5119 5114 5106 5106 5107 5108 5110 5112 5115 5115 5116 5117 5119 5120 5120 5121 5121 5122 5124 5127 5134 5145
5157 5150 5142 5136 5129 5123 5117 5113 5109 5107 5104 5103 5102 5101 5101 5102 5104 5107 5108 5107 5103 5101 5092 5091 5091 5092 5092 5094 5096 5099 5102 5105 5107 5109 5111 5113 5113 5114 5116 5119 5123 5132 5141
5142 5135 5128 5121 5115 5109 5104 5100 5096 5093 5091 5089 5089 5089 5092 5093 5095 5097 5098 5092 5087 5086 5081 5079 5079 5079 5079 5081 5083 5087 5092 5096 5099 5103 5106 5108 5109 5111 5114 5117 5124 5132 5140
5128 5121 5114 5107 5102 5096 5092 5089 5085 5081 5079 5079 5080 5081 5082 5083 5086 5086 5084 5076 5073 5073 5072 5070 5069 5068 5069 5070 5074 5078 5082 5086 5091 5095 5099 5103 5106 5109 5114 5119 5126 5134 5141
5113 5107 5101 5094 5088 5084 5081 5077 5074 5071 5069 5068 5069 5071 5073 5076 5075 5074 5071 5068 5065 5064 5063 5062 5061 5060 5060 5063 5066 5071 5076 5080 5084 5088 5092 5097 5103 5109 5115 5121 5127 5135 5142
5098 5091 5086 5080 5075 5071 5068 5065 5063 5061 5059 5059 5060 5062 5069 5070 5065 5064 5063 5062 5060 5057 5056 5055 5054 5054 5055 5056 5060 5065 5069 5074 5077 5081 5086 5091 5097 5104 5112 5119 5126 5132 5137
5082 5075 5069 5065 5061 5058 5056 5055 5053 5052 5052 5052 5054 5054 5059 5058 5056 5056 5056 5055 5054 5052 5050 5048 5048 5048 5049 5050 5053 5058 5064 5069 5073 5076 5079 5084 5090 5096 5104 5111 5118 5124 5127
5066 5060 5054 5050 5047 5046 5045 5044 5043 5043 5044 5045 5046 5048 5048 5049 5049 5049 5049 5049 5048 5047 5046 5045 5044 5045 5046 5046 5048 5051 5058 5065 5068 5070 5073 5078 5082 5088 5094 5100 5105 5109 5112
5051 5044 5040 5036 5033 5033 5033 5034 5034 5036 5037 5039 5040 5041 5043 5044 5044 5045 5045 5045 5044 5044 5043 5042 5042 5043 5044 5044 5046 5049 5053 5060 5063 5066 5068 5071 5074 5078 5083 5087 5091 5094 5096
5033 5027 5023 5020 5019 5020 5022 5024 5026 5029 5031 5033 5036 5038 5040 5040 5041 5042 5042 5041 5040 5040 5041 5041 5041 5041 5042 5043 5045 5048 5052 5057 5060 5061 5063 5065 5067 5069 5072 5074 5077 5080 5081
5017 5011 5008 5006 5007 5009 5012 5016 5020 5023 5026 5029 5032 5034 5035 5036 5037 5038 5038 5037 5037 5037 5038 5039 5040 5039 5040 5042 5044 5047 5051 5056 5057 5057 5058 5059 5060 5062 5062 5064 5064 5066 5066